Regional Weather Roundup
Issued by NWS

Home | Current Version | Previous Version | Text Only | Print | Product List | Glossary Off
Versions: 1 2 3 4 5 6 7 8 9 10 11 12 13 14 15 16 17 18 19 20 21 22 23 24 25 26 27 28 29 30 31 32 33 34 35 36 37 38 39 40 41 42 43 44 45 46 47 48 49 50

000
ASUS43 KOAX 010110
RWRNE

WEATHER ROUNDUP FOR NEBRASKA
NATIONAL WEATHER SERVICE OMAHA NE
800 PM CDT TUE JUN 30 2015

NOTES: SATELLITE DATA IS BEING USED TO AUGMENT CLOUD COVER ABOVE
       12000 FEET.
       "FAIR" INDICATES FEW OR NO CLOUDS BELOW 12,000 FEET WITH NO
       SIGNIFICANT WEATHER AND/OR OBSTRUCTIONS TO VISIBILITY.

  * THESE STATIONS DO NOT REPORT WEATHER SUCH AS RAIN...SNOW OR FOG.

NEZ001>004-019>022-054>056-010200-
NEBRASKA PANHANDLE

CITY           SKY/WX    TMP DP  RH WIND       PRES   REMARKS
SCOTTSBLUFF    SUNNY     90  57  32 N10       29.91R
ALLIANCE       PTSUNNY   83  66  56 W6        29.89S
CHADRON        MOSUNNY   87  66  49 CALM      29.88R
SIDNEY         MOSUNNY   89  56  32 W7        29.96S
$$

NEZ057>060-069>072-079>082-010200-
SOUTHWEST NEBRASKA

CITY           SKY/WX    TMP DP  RH WIND       PRES   REMARKS
NORTH PLATTE   SUNNY     92  67  43 CALM      29.83S HX  95
IMPERIAL       SUNNY     90  57  32 SE6       29.86S
MCCOOK         MOSUNNY   96  57  27 E5        29.82F HX  95
$$

NEZ005>010-023>029-035>040-094-010200-
NORTH CENTRAL NEBRASKA

CITY           SKY/WX    TMP DP  RH WIND       PRES   REMARKS
VALENTINE      CLOUDY    76  66  71 E14       29.87R
BROKEN BOW     MOSUNNY   85  71  63 E8        29.84R HX  90
ORD            CLOUDY    78  65  63 E9        29.84S
$$

NEZ041-046>049-061>064-073>077-083>087-010200-
SOUTH CENTRAL NEBRASKA

CITY           SKY/WX    TMP DP  RH WIND       PRES   REMARKS
GRAND ISLAND   CLOUDY    80  69  69 E14       29.84S
HASTINGS       CLOUDY    84  67  56 E15G23    29.83S
KEARNEY *      CLOUDY    86  66  51 SE8       29.82F
$$

NEZ011>018-030>034-042>045-010200-
NORTHEAST NEBRASKA

CITY           SKY/WX    TMP DP  RH WIND       PRES   REMARKS
NORFOLK        CLOUDY    73  63  70 SE6       29.93R THUNDER
COLUMBUS *     CLOUDY   N/A N/A N/A E7        29.90F
TEKAMAH        CLOUDY    74  68  81 CALM      29.88S
$$

NEZ050>053-065>068-078-088>093-010200-
SOUTHEAST NEBRASKA

CITY           SKY/WX    TMP DP  RH WIND       PRES   REMARKS
LINCOLN        CLOUDY    78  65  63 E10       29.87S HAZE
OMAHA EPPLEY   CLOUDY    75  66  73 CALM      29.89R
FALLS CITY     CLOUDY    77  69  76 E7        29.86S
$$

NEZ044-045-051>053-067-010200-
OMAHA AREA

CITY           SKY/WX    TMP DP  RH WIND       PRES   REMARKS
OMAHA EPPLEY   CLOUDY    75  66  73 CALM      29.89R
OFFUTT AFB     CLOUDY    74  67  77 E3        29.88R
$$



USA.gov is the U.S. government's official web portal to all federal, state and local government web resources and services.